| time (UTC) | temp C | wind direction | speed KPH | gust KPH | rain 1hr cm | rain 24hr cm | rain mn cm | humidity % | barometer mb |
| 20260508053036 | 3 | 0 | 0.0 | 0.0 | 0.00 | 0.13 | 0.00 | 71 | 1014.7 |
| 20260508051541 | 3 | 0 | 0.0 | 0.0 | 0.00 | 0.13 | 0.00 | 71 | 1014.7 |
| 20260508050036 | 3 | 0 | 0.0 | 0.0 | 0.00 | 0.13 | 0.00 | 71 | 1014.8 |
| 20260508044538 | 4 | 0 | 0.0 | 1.6 | 0.00 | 0.15 | 0.00 | 71 | 1014.8 |
| 20260508043036 | 4 | 0 | 0.0 | 1.6 | 0.00 | 0.15 | 0.00 | 69 | 1014.7 |
| 20260508041535 | 5 | 0 | 0.0 | 1.6 | 0.00 | 0.15 | 0.00 | 68 | 1014.6 |
| 20260508040047 | 5 | 0 | 0.0 | 1.6 | 0.00 | 0.15 | 0.00 | 67 | 1014.5 |
| 20260508034544 | 5 | 0 | 0.0 | 1.6 | 0.00 | 0.20 | 0.15 | 66 | 1014.2 |
| 20260508033034 | 5 | 0 | 0.0 | 1.6 | 0.00 | 0.20 | 0.15 | 65 | 1014.0 |
| 20260508031541 | 5 | 0 | 0.0 | 1.6 | 0.00 | 0.20 | 0.15 | 67 | 1013.8 |
| 20260508030035 | 6 | 0 | 0.0 | 1.6 | 0.00 | 0.20 | 0.15 | 66 | 1013.8 |
| 20260508024558 | 6 | 0 | 0.0 | 3.2 | 0.00 | 0.28 | 0.15 | 67 | 1013.6 |
| 20260508023038 | 6 | 0 | 0.0 | 3.2 | 0.00 | 0.28 | 0.15 | 64 | 1013.5 |
| 20260508021537 | 7 | 0 | 0.0 | 1.6 | 0.00 | 0.28 | 0.15 | 66 | 1013.4 |
| 20260508020046 | 7 | 0 | 0.0 | 3.2 | 0.00 | 0.28 | 0.15 | 63 | 1013.3 |
| 20260508014538 | 7 | 311 | 0.0 | 4.8 | 0.00 | 0.33 | 0.15 | 63 | 1013.1 |
| 20260508013036 | 8 | 0 | 0.0 | 3.2 | 0.00 | 0.33 | 0.15 | 62 | 1013.0 |
| 20260508011535 | 8 | 0 | 0.0 | 6.4 | 0.00 | 0.33 | 0.15 | 60 | 1012.7 |
| 20260508010047 | 8 | 304 | 1.6 | 4.8 | 0.00 | 0.33 | 0.15 | 58 | 1012.6 |
| 20260508004543 | 8 | 0 | 0.0 | 4.8 | 0.00 | 0.33 | 0.15 | 60 | 1012.4 |
| 20260508003035 | 8 | 308 | 1.6 | 4.8 | 0.00 | 0.33 | 0.15 | 58 | 1012.3 |
| 20260508001543 | 9 | 359 | 0.0 | 4.8 | 0.00 | 0.33 | 0.15 | 59 | 1012.2 |
| 20260508000034 | 10 | 350 | 0.0 | 3.2 | 0.00 | 0.33 | 0.15 | 61 | 1012.1 |
| 20260507234533 | 10 | 332 | 0.0 | 4.8 | 0.00 | 0.38 | 0.15 | 55 | 1011.8 |
| 20260507233036 | 10 | 320 | 1.6 | 8.0 | 0.00 | 0.38 | 0.15 | 54 | 1011.9 |
| 20260507231536 | 11 | 296 | 1.6 | 4.8 | 0.00 | 0.38 | 0.15 | 53 | 1011.6 |
| 20260507230038 | 11 | 318 | 1.6 | 4.8 | 0.00 | 0.38 | 0.15 | 52 | 1011.4 |
| 20260507224536 | 11 | 355 | 1.6 | 12.9 | 0.00 | 0.46 | 0.15 | 56 | 1011.4 |
| 20260507223035 | 11 | 299 | 1.6 | 11.3 | 0.00 | 0.46 | 0.15 | 54 | 1011.4 |
| 20260507221541 | 12 | 352 | 3.2 | 9.7 | 0.00 | 0.46 | 0.15 | 56 | 1011.1 |
| 20260507220035 | 12 | 280 | 3.2 | 9.7 | 0.00 | 0.46 | 0.15 | 51 | 1011.1 |
| 20260507214537 | 12 | 300 | 1.6 | 12.9 | 0.00 | 0.51 | 0.15 | 52 | 1010.8 |
| 20260507213037 | 12 | 329 | 4.8 | 12.9 | 0.00 | 0.51 | 0.15 | 53 | 1010.8 |
| 20260507211534 | 11 | 316 | 1.6 | 4.8 | 0.00 | 0.51 | 0.15 | 52 | 1010.6 |
| 20260507210040 | 11 | 333 | 3.2 | 8.0 | 0.00 | 0.51 | 0.15 | 54 | 1010.4 |
| 20260507204535 | 11 | 355 | 3.2 | 14.5 | 0.00 | 0.56 | 0.15 | 52 | 1010.3 |
| 20260507203104 | 11 | 311 | 1.6 | 6.4 | 0.00 | 0.56 | 0.15 | 56 | 1010.4 |
| 20260507201535 | 11 | 321 | 3.2 | 8.0 | 0.00 | 0.56 | 0.15 | 55 | 1010.6 |
| 20260507200035 | 12 | 356 | 3.2 | 8.0 | 0.00 | 0.56 | 0.15 | 54 | 1010.7 |
| 20260507194535 | 11 | 330 | 3.2 | 6.4 | 0.00 | 0.58 | 0.15 | 57 | 1011.1 |
| 20260507193039 | 11 | 315 | 1.6 | 9.7 | 0.00 | 0.58 | 0.15 | 58 | 1011.1 |
| 20260507191538 | 11 | 323 | 4.8 | 12.9 | 0.00 | 0.58 | 0.15 | 57 | 1011.1 |
| 20260507190034 | 12 | 49 | 6.4 | 16.1 | 0.00 | 0.58 | 0.15 | 55 | 1010.9 |
| 20260507184535 | 11 | 4 | 3.2 | 6.4 | 0.00 | 0.64 | 0.15 | 58 | 1011.1 |
| 20260507183036 | 11 | 320 | 3.2 | 8.0 | 0.00 | 0.64 | 0.15 | 61 | 1011.1 |
| 20260507181535 | 12 | 328 | 3.2 | 9.7 | 0.00 | 0.64 | 0.15 | 57 | 1011.1 |
| 20260507180039 | 12 | 12 | 3.2 | 14.5 | 0.00 | 0.64 | 0.15 | 62 | 1011.2 |
| 20260507174542 | 11 | 45 | 3.2 | 9.7 | 0.00 | 0.69 | 0.15 | 60 | 1011.5 |
| 20260507173053 | 11 | 309 | 3.2 | 8.0 | 0.00 | 0.69 | 0.15 | 62 | 1011.5 |
| 20260507171541 | 11 | 2 | 4.8 | 14.5 | 0.00 | 0.69 | 0.15 | 63 | 1011.6 |
| 20260507170039 | 10 | 327 | 4.8 | 12.9 | 0.00 | 0.69 | 0.15 | 65 | 1011.9 |
| 20260507164536 | 10 | 334 | 1.6 | 9.7 | 0.00 | 0.74 | 0.15 | 65 | 1012.1 |
| 20260507163039 | 10 | 64 | 3.2 | 9.7 | 0.00 | 0.74 | 0.15 | 69 | 1012.3 |
| 20260507161543 | 10 | 336 | 1.6 | 9.7 | 0.00 | 0.74 | 0.15 | 73 | 1012.4 |
| 20260507160038 | 9 | 318 | 0.0 | 8.0 | 0.00 | 0.74 | 0.15 | 74 | 1012.5 |
| 20260507154535 | 9 | 319 | 3.2 | 12.9 | 0.00 | 0.74 | 0.15 | 76 | 1012.5 |
| 20260507153035 | 8 | 332 | 1.6 | 4.8 | 0.00 | 0.74 | 0.15 | 78 | 1012.5 |
| 20260507151536 | 8 | 359 | 3.2 | 6.4 | 0.00 | 0.74 | 0.15 | 82 | 1012.4 |
| 20260507150040 | 8 | 0 | 0.0 | 3.2 | 0.00 | 0.74 | 0.15 | 82 | 1012.5 |
| 20260507144536 | 7 | 0 | 1.6 | 4.8 | 0.00 | 0.76 | 0.15 | 85 | 1012.8 |
| 20260507143045 | 7 | 356 | 0.0 | 3.2 | 0.00 | 0.76 | 0.15 | 87 | 1013.1 |
| 20260507141547 | 7 | 331 | 1.6 | 4.8 | 0.00 | 0.76 | 0.15 | 87 | 1013.4 |
| 20260507140035 | 7 | 350 | 0.0 | 3.2 | 0.00 | 0.76 | 0.15 | 91 | 1013.5 |
| 20260507134535 | 6 | 0 | 0.0 | 3.2 | 0.00 | 0.79 | 0.15 | 94 | 1013.5 |
| 20260507133104 | 6 | 0 | 0.0 | 6.4 | 0.00 | 0.79 | 0.15 | 94 | 1013.7 |
| 20260507131540 | 6 | 0 | 0.0 | 3.2 | 0.00 | 0.79 | 0.15 | 96 | 1013.8 |
| 20260507130038 | 6 | 9 | 0.0 | 3.2 | 0.00 | 0.79 | 0.15 | 96 | 1013.8 |
| 20260507124534 | 6 | 0 | 0.0 | 4.8 | 0.00 | 0.91 | 0.15 | 97 | 1013.8 |
| 20260507123040 | 5 | 0 | 0.0 | 4.8 | 0.00 | 0.91 | 0.15 | 97 | 1013.9 |
| 20260507121535 | 5 | 350 | 0.0 | 3.2 | 0.00 | 0.91 | 0.15 | 96 | 1013.8 |
| 20260507120037 | 5 | 174 | 0.0 | 3.2 | 0.00 | 0.91 | 0.15 | 97 | 1013.8 |
| 20260507114539 | 5 | 0 | 0.0 | 0.0 | 0.00 | 1.24 | 0.15 | 97 | 1013.7 |
| 20260507113037 | 5 | 0 | 0.0 | 0.0 | 0.00 | 1.24 | 0.15 | 97 | 1013.5 |
| 20260507111536 | 5 | 0 | 0.0 | 0.0 | 0.00 | 1.24 | 0.15 | 97 | 1013.3 |
| 20260507110041 | 5 | 0 | 0.0 | 0.0 | 0.00 | 1.24 | 0.15 | 97 | 1012.9 |
| 20260507104536 | 5 | 0 | 0.0 | 1.6 | 0.00 | 1.65 | 0.15 | 97 | 1012.9 |
| 20260507103043 | 5 | 0 | 0.0 | 1.6 | 0.03 | 1.65 | 0.15 | 97 | 1012.9 |
| 20260507101540 | 5 | 0 | 0.0 | 1.6 | 0.03 | 1.65 | 0.15 | 97 | 1012.6 |
| 20260507100038 | 6 | 353 | 0.0 | 1.6 | 0.03 | 1.65 | 0.15 | 97 | 1012.8 |
| 20260507094544 | 6 | 0 | 0.0 | 1.6 | 0.03 | 1.91 | 0.15 | 97 | 1012.4 |
| 20260507093038 | 6 | 0 | 0.0 | 3.2 | 0.03 | 1.88 | 0.13 | 97 | 1012.2 |
| 20260507091535 | 6 | 0 | 0.0 | 3.2 | 0.05 | 1.88 | 0.13 | 97 | 1012.5 |
| 20260507090037 | 6 | 314 | 1.6 | 4.8 | 0.05 | 1.88 | 0.13 | 96 | 1012.5 |
| 20260507084539 | 6 | 319 | 1.6 | 3.2 | 0.08 | 1.91 | 0.13 | 97 | 1012.3 |
| 20260507083036 | 6 | 0 | 0.0 | 1.6 | 0.05 | 1.88 | 0.10 | 97 | 1012.3 |
| 20260507081539 | 6 | 0 | 0.0 | 1.6 | 0.03 | 1.85 | 0.08 | 97 | 1012.6 |
| 20260507080035 | 6 | 0 | 0.0 | 1.6 | 0.03 | 1.85 | 0.08 | 97 | 1012.5 |
| 20260507074534 | 6 | 0 | 0.0 | 1.6 | 0.00 | 1.83 | 0.05 | 97 | 1012.4 |
| 20260507073038 | 6 | 0 | 0.0 | 0.0 | 0.00 | 1.83 | 0.05 | 97 | 1012.5 |
| 20260507071536 | 6 | 0 | 0.0 | 0.0 | 0.00 | 1.83 | 0.05 | 97 | 1012.5 |
| 20260507070044 | 6 | 0 | 0.0 | 0.0 | 0.00 | 1.83 | 0.05 | 97 | 1012.4 |
| 20260507064543 | 6 | 0 | 0.0 | 0.0 | 0.00 | 1.83 | 0.05 | 97 | 1012.5 |
| 20260507063037 | 6 | 0 | 0.0 | 0.0 | 0.00 | 1.83 | 0.05 | 97 | 1012.4 |
| 20260507061538 | 6 | 0 | 0.0 | 0.0 | 0.03 | 1.83 | 0.05 | 97 | 1012.7 |
| 20260507060036 | 6 | 0 | 0.0 | 0.0 | 0.03 | 1.83 | 0.05 | 96 | 1012.9 |
| 20260507054534 | 6 | 0 | 0.0 | 0.0 | 0.03 | 1.83 | 0.05 | 96 | 1013.2 |